Temp
84 83 88 85 88 68 79 79 72 77 88 83 73 75 80 78 72 67 71 66 71 76 78 80 81 81 81 83 82 82 80 82 81 80 81 77 77 80 83 83 83 81 82 83 83 81 81 83 84 86 86 89 89 88 88 86 86 87 87 86 87 87 86
85 89 88 87 87 86 80 71 77 87 90 87 76 65 68 70 64 62 70 61 62 65 57 76 76 77 78 78 79 80 80 80 79 79 80 76 75 74 81 83 82 81 81 81 84 82 78 78 79 83 82 88 90 90 89 87 86 86 87 88 88 88 87
83 88 86 82 87 89 80 80 86 74 67 65 75 69 56 58 62 59 65 65 64 68 61 73 71 74 73 74 75 77 77 77 77 79 80 79 77 76 78 81 80 79 79 78 80 81 80 81 80 84 82 86 93 93 92 90 88 89 90 91 90 89 89
82 82 79 66 74 84 87 88 82 86 78 73 69 70 70 69 63 57 56 61 56 67 69 72 73 73 74 73 73 73 74 74 76 76 77 79 77 76 78 79 80 80 79 79 79 80 83 85 88 87 91 93 94 93 91 91 92 89 88 90 89 89 90
80 68 74 71 75 72 76 76 74 79 78 85 82 80 72 67 61 62 56 50 59 69 76 75 73 74 73 74 73 72 72 73 74 76 77 78 78 75 77 79 78 79 79 79 77 77 85 88 89 90 91 91 93 94 93 91 89 89 89 90 91 90 90
70 73 81 81 81 81 79 77 75 78 76 72 65 64 80 75 67 54 56 49 59 72 80 77 75 76 75 76 75 73 73 73 72 73 75 75 76 77 80 77 78 76 76 77 80 81 85 87 89 88 89 91 89 92 93 93 92 92 92 91 90 90 90
71 78 84 86 84 83 82 82 78 83 82 77 70 57 67 75 73 73 65 55 56 75 79 79 79 78 77 77 78 74 74 73 74 75 75 76 76 76 78 79 81 79 75 74 75 78 80 83 84 87 90 90 90 91 90 90 89 87 86 81 77 80 90
79 80 83 84 84 82 78 80 84 82 78 80 76 74 71 68 61 61 59 53 56 74 78 78 79 80 80 78 78 75 76 75 75 74 74 74 74 75 78 79 79 80 78 74 73 73 76 80 82 83 85 88 88 87 88 89 86 86 87 83 79 79 77
65 71 74 75 81 80 76 76 79 80 82 81 79 74 73 65 69 64 61 46 56 70 77 78 79 79 79 78 80 79 75 76 76 76 75 74 74 74 75 75 75 76 77 76 74 72 74 76 81 82 82 83 86 85 84 83 83 85 86 85 83 81 81
50 50 53 57 64 70 76 80 79 80 78 74 71 67 68 57 66 67 58 53 63 70 74 75 77 77 75 78 79 80 80 77 76 75 76 74 74 73 73 74 74 74 74 76 75 75 75 76 77 76 79 82 83 84 86 86 85 83 85 86 84 83 83
57 58 61 73 77 74 68 73 76 76 79 79 76 71 65 61 64 59 60 60 61 64 69 70 73 74 74 74 75 76 77 78 78 77 76 76 75 74 75 74 74 74 73 74 75 75 75 75 76 76 77 77 80 80 82 84 83 83 83 82 82 82 83
68 69 69 75 75 72 74 72 73 75 75 75 72 67 64 69 63 52 59 63 62 64 68 70 71 72 73 74 75 76 76 77 77 79 77 76 77 76 75 74 74 73 73 74 74 74 75 75 75 75 75 76 75 78 79 81 84 84 82 81 80 80 79
71 73 72 73 74 72 75 75 74 72 73 73 69 70 73 72 64 52 61 64 62 65 70 72 72 73 73 75 76 77 78 79 79 78 78 78 78 77 77 74 73 74 74 74 74 75 75 75 73 71 71 72 73 74 75 80 80 81 82 82 80 79 77
71 71 72 74 72 72 71 71 71 73 73 72 73 73 76 75 66 65 64 62 64 69 70 72 74 76 76 76 77 77 77 77 77 77 76 77 77 76 76 76 76 75 75 75 75 76 75 74 72 73 74 73 73 73 74 78 80 80 82 81 80 77 76
65 70 71 71 71 70 68 71 73 72 73 74 75 75 75 73 67 69 67 63 62 70 74 73 74 75 76 75 76 75 74 77 77 76 76 76 76 75 75 75 76 75 75 75 76 76 76 75 75 73 74 76 75 77 75 77 79 81 83 79 79 80 78
60 68 69 70 71 70 68 68 70 70 70 68 71 69 74 71 61 64 63 59 58 66 73 73 71 72 73 72 73 74 75 78 76 73 73 73 74 75 74 75 75 75 75 75 76 77 78 78 77 76 76 76 78 78 79 78 80 81 81 80 78 78 77
58 67 70 69 69 67 61 64 69 71 72 73 75 76 77 75 69 62 57 55 66 68 71 69 70 71 71 72 73 71 73 73 75 75 76 73 73 74 74 73 73 75 75 75 75 77 79 79 78 79 80 79 78 79 79 80 81 80 80 79 77 76 76
58 65 69 68 61 51 54 72 78 76 72 73 71 71 72 74 71 67 67 67 69 70 70 69 69 70 69 71 72 75 73 73 74 74 76 76 75 74 75 75 74 73 74 75 76 77 77 80 81 81 80 81 80 81 81 81 81 79 79 78 77 77 76
57 63 64 56 49 52 70 77 79 80 79 78 75 73 73 71 72 70 68 67 68 70 72 73 71 70 72 75 75 75 77 76 74 74 76 74 73 73 73 72 73 73 73 74 75 76 79 80 80 80 80 81 81 81 82 82 82 79 78 77 76 76 75
62 58 58 44 49 64 71 73 74 77 79 77 74 67 70 72 72 68 66 69 71 72 73 75 74 73 74 75 75 75 76 78 78 78 76 76 76 74 75 74 73 72 73 73 74 76 79 80 80 80 79 80 81 81 83 83 81 80 78 76 76 75 76
52 56 57 56 61 62 65 65 68 72 68 68 66 57 62 70 72 72 69 69 71 73 74 72 73 73 73 70 70 77 76 77 81 80 78 78 77 77 76 78 76 75 75 75 76 77 78 79 79 79 80 80 79 79 80 81 81 80 78 75 75 75 76
60 54 52 55 52 48 57 66 72 77 77 77 75 68 60 70 73 74 72 68 69 69 72 72 72 73 66 62 65 75 76 76 77 80 80 79 79 79 78 78 78 76 76 77 78 79 78 76 77 78 81 79 78 76 77 79 80 78 77 75 75 75 76
58 55 51 51 48 52 64 66 71 75 79 77 75 66 56 69 72 73 74 72 73 74 72 72 73 65 58 58 66 75 79 79 79 77 77 78 78 78 78 77 76 76 76 76 78 79 78 76 76 78 78 77 77 75 76 77 78 76 75 74 75 75 76
57 56 52 50 58 53 63 69 72 75 77 75 69 50 53 67 75 76 75 74 76 77 75 73 71 67 62 60 67 77 79 78 77 75 75 75 76 77 78 77 77 76 76 76 76 77 77 75 77 78 77 76 74 74 74 75 75 74 74 74 75 76 76
57 54 55 59 57 64 70 70 73 75 76 70 54 46 60 70 74 76 76 74 74 75 74 73 66 67 68 69 73 77 76 76 77 77 77 76 76 75 76 75 76 76 76 76 75 77 76 75 78 78 77 74 73 73 73 74 73 74 75 75 75 75 76
56 58 54 54 56 65 71 73 74 75 66 52 53 62 71 73 73 75 78 76 73 72 72 72 69 71 75 75 76 75 75 74 74 75 75 75 76 76 75 75 75 74 75 74 75 76 76 77 76 76 74 72 72 72 72 73 74 77 76 76 75 75 75
60 58 54 50 43 60 73 72 70 70 58 57 65 68 72 76 74 76 74 72 71 72 71 71 69 73 74 73 73 73 74 73 73 73 72 71 71 72 73 73 74 73 72 72 73 73 75 75 75 74 73 71 71 72 71 73 76 77 77 76 75 75 75
54 53 50 48 59 65 73 70 60 64 65 68 70 69 67 71 72 71 72 70 71 72 70 69 70 71 70 71 72 71 72 72 73 72 71 71 71 72 73 74 72 72 71 71 71 72 73 72 73 73 72 70 70 70 71 74 76 77 76 76 76 75 74
58 52 56 61 68 71 74 70 66 68 70 72 72 72 70 69 71 72 70 68 69 69 68 68 68 69 71 70 71 70 70 71 70 69 69 70 69 70 70 70 70 70 70 69 70 70 71 71 71 71 72 70 70 69 72 74 73 75 76 76 76 75 74
66 68 69 70 70 71 70 73 72 70 70 72 72 71 70 71 71 73 71 68 69 68 68 67 68 69 70 69 70 70 70 69 69 69 69 68 69 70 69 68 68 68 69 69 69 68 69 71 71 71 71 71 69 70 73 74 74 74 75 75 75 75 75
58 49 64 67 67 70 71 71 73 74 72 71 72 71 72 70 71 71 72 72 70 68 67 67 66 68 70 69 68 67 67 67 67 67 66 67 67 67 66 66 67 66 67 67 67 68 68 69 70 72 71 72 71 72 72 74 74 74 73 73 73 74 74
59 58 64 67 71 70 72 71 70 69 70 70 71 72 72 71 70 70 70 70 70 70 67 66 66 67 68 67 66 67 67 66 65 65 66 66 66 66 66 67 67 66 66 65 66 66 66 67 69 69 70 71 72 72 73 74 74 73 72 72 73 73 75
64 66 66 67 67 68 69 71 73 72 69 69 69 70 70 69 68 68 69 71 70 70 69 68 67 66 66 67 66 66 66 65 65 65 65 65 65 65 65 66 66 66 66 65 65 65 66 67 68 67 68 70 72 71 72 73 72 71 71 71 72 73 74
59 56 59 64 57 57 64 68 71 72 72 70 69 69 69 70 68 67 67 67 70 70 69 67 67 66 65 66 65 65 65 64 65 66 65 65 65 65 66 67 66 66 66 65 65 65 65 66 67 67 68 68 70 72 73 73 72 71 71 71 71 72 73
47 55 61 63 63 64 67 68 71 73 73 72 68 69 68 69 69 68 67 67 67 67 69 69 68 66 65 66 67 66 65 65 66 66 65 64 64 64 65 64 65 64 64 65 64 64 64 65 65 65 66 68 70 71 72 72 72 71 71 70 71 72 72
58 60 60 62 60 58 59 68 70 71 72 71 70 69 69 69 69 69 69 68 67 66 68 69 69 68 68 70 68 66 66 66 66 66 66 65 65 65 65 65 64 64 64 64 63 63 64 64 64 64 66 68 69 71 72 72 72 71 70 69 70 71 72
56 62 62 62 62 65 68 69 70 71 72 71 69 68 69 68 70 71 67 65 68 66 63 66 67 67 68 69 68 67 65 65 66 66 65 65 65 64 64 65 64 63 63 63 63 63 63 63 63 64 65 66 66 69 70 72 71 70 69 69 69 69 68
MSLP
1006.19 1006.39 1005.03 1005.51 1004.59 1011.07 1007.27 1008.03 1010.07 1008.23 1004.63 1005.95 1008.71 1008.39 1006.59 1007.11 1009.39 1011.19 1010.51 1013.27 1012.51 1011.51 1011.59 1011.39 1010.91 1011.23 1011.47 1011.07 1011.55 1011.83 1012.43 1012.03 1011.95 1012.59 1012.51 1013.47 1013.15 1012.95 1012.35 1012.43 1012.43 1012.67 1012.59 1012.63 1012.75 1012.91 1013.07 1012.95 1013.19 1013.31 1013.27 1012.71 1012.63 1012.91 1013.35 1013.79 1013.91 1013.99 1014.11 1014.23 1014.35 1014.47 1014.59
1005.67 1004.71 1004.91 1005.31 1005.31 1005.35 1007.19 1010.03 1008.39 1005.55 1003.95 1004.35 1007.51 1011.63 1009.95 1009.39 1011.67 1012.79 1010.99 1014.67 1015.35 1014.15 1017.71 1012.19 1012.71 1012.43 1012.43 1012.75 1012.63 1012.67 1012.47 1012.31 1013.07 1012.95 1012.79 1013.63 1013.99 1014.23 1012.87 1012.31 1012.35 1012.51 1012.71 1012.87 1012.63 1012.75 1012.95 1012.91 1013.03 1013.47 1013.19 1012.99 1012.47 1012.55 1012.91 1013.47 1013.79 1014.03 1013.95 1014.03 1014.15 1014.27 1014.51
1006.43 1005.07 1006.03 1006.75 1005.55 1004.55 1007.11 1007.15 1005.67 1009.11 1011.15 1011.95 1007.59 1010.71 1015.55 1013.99 1011.91 1014.19 1012.99 1013.43 1013.79 1013.07 1016.23 1013.11 1013.75 1013.27 1014.03 1013.79 1013.75 1013.75 1013.87 1013.63 1013.55 1013.39 1013.11 1013.15 1013.75 1013.99 1013.47 1012.99 1013.07 1013.23 1013.35 1013.55 1013.47 1013.39 1013.27 1013.07 1012.83 1013.11 1013.79 1013.39 1012.27 1012.31 1012.43 1013.03 1013.55 1013.47 1013.47 1013.55 1013.71 1013.87 1014.07
1006.43 1007.11 1008.03 1011.63 1009.35 1006.27 1005.03 1004.87 1006.83 1005.47 1007.91 1008.71 1009.67 1009.55 1009.71 1009.75 1011.39 1014.83 1016.79 1014.51 1017.47 1014.03 1013.19 1012.59 1013.27 1013.67 1013.71 1014.19 1014.43 1014.91 1014.87 1014.75 1014.51 1014.51 1014.23 1013.51 1013.95 1014.31 1013.75 1013.51 1013.27 1013.35 1013.39 1013.39 1013.51 1013.55 1013.23 1012.75 1012.35 1012.87 1012.59 1012.19 1012.19 1012.19 1012.51 1012.75 1012.83 1013.19 1013.43 1013.47 1013.55 1013.87 1013.83
1007.35 1011.07 1009.15 1009.95 1008.91 1009.51 1008.63 1008.79 1009.07 1007.59 1007.51 1004.71 1005.47 1006.51 1008.95 1010.63 1012.71 1011.91 1015.63 1018.83 1016.99 1013.91 1011.83 1012.35 1013.19 1013.19 1013.91 1013.99 1014.43 1015.03 1015.35 1015.39 1015.07 1014.91 1014.47 1014.31 1014.23 1014.39 1013.83 1013.43 1013.75 1013.63 1013.71 1013.55 1013.27 1013.15 1012.59 1012.31 1012.07 1012.27 1012.31 1012.39 1012.07 1012.07 1012.31 1012.63 1013.15 1013.39 1013.47 1013.39 1013.39 1013.63 1013.67
1010.23 1008.91 1007.11 1006.71 1006.51 1006.67 1007.23 1007.75 1008.31 1007.03 1007.75 1009.35 1011.63 1011.27 1006.63 1007.99 1010.27 1014.15 1015.39 1019.71 1016.47 1013.19 1011.23 1012.15 1012.79 1013.03 1013.63 1013.59 1014.03 1014.83 1015.23 1015.59 1015.83 1015.51 1015.11 1015.07 1014.83 1014.47 1013.71 1013.83 1013.79 1014.15 1014.15 1013.95 1013.03 1012.75 1012.51 1012.39 1012.39 1012.79 1012.71 1012.23 1012.67 1012.39 1012.11 1012.31 1012.55 1012.79 1013.07 1013.39 1013.47 1013.51 1013.63
1009.15 1006.95 1005.67 1005.07 1005.71 1006.23 1006.39 1005.87 1007.23 1005.51 1005.87 1007.95 1009.87 1012.91 1009.99 1007.99 1008.55 1009.11 1012.39 1016.63 1017.87 1012.63 1011.55 1011.75 1012.03 1012.47 1012.91 1013.11 1013.31 1014.51 1015.11 1015.55 1015.75 1015.67 1015.51 1015.11 1014.99 1015.03 1014.55 1014.19 1013.67 1013.79 1014.19 1014.23 1014.11 1013.67 1013.35 1013.07 1013.11 1012.71 1012.35 1012.39 1012.51 1012.35 1012.31 1012.51 1012.91 1013.15 1013.31 1013.83 1014.43 1014.75 1013.83
1007.11 1006.71 1006.03 1006.07 1006.15 1006.83 1007.67 1006.79 1005.19 1005.75 1006.95 1006.39 1007.75 1008.35 1009.27 1010.07 1013.23 1013.31 1014.71 1017.19 1017.83 1013.03 1011.59 1011.87 1012.15 1011.87 1012.31 1012.71 1013.31 1014.27 1014.59 1015.27 1015.51 1015.91 1015.99 1015.95 1015.79 1015.43 1014.79 1014.39 1014.39 1014.11 1014.75 1015.19 1015.15 1014.95 1014.39 1013.75 1013.39 1013.31 1012.91 1012.63 1012.71 1012.71 1012.71 1012.71 1013.23 1013.31 1013.43 1013.75 1014.03 1014.55 1015.31
1011.27 1009.67 1009.23 1009.07 1007.31 1007.47 1008.19 1008.03 1007.11 1006.71 1006.23 1006.23 1007.15 1008.63 1008.67 1011.11 1009.91 1012.55 1013.55 1020.23 1018.07 1014.15 1012.07 1012.23 1012.27 1012.35 1012.55 1013.15 1013.07 1013.47 1014.63 1014.83 1015.31 1015.71 1015.91 1015.99 1015.99 1015.83 1015.71 1015.71 1015.55 1015.35 1015.39 1015.67 1015.79 1015.83 1015.11 1014.47 1014.11 1013.91 1013.75 1013.39 1013.19 1013.23 1013.15 1013.31 1013.39 1013.31 1013.43 1013.55 1013.83 1014.39 1014.67
1015.43 1015.43 1014.71 1013.43 1011.79 1010.15 1007.99 1006.95 1007.23 1006.79 1007.83 1009.15 1009.79 1010.87 1010.59 1013.19 1010.91 1010.71 1014.79 1018.31 1015.95 1014.27 1013.19 1013.31 1012.67 1012.87 1013.63 1013.47 1013.51 1013.55 1013.79 1014.55 1015.19 1015.59 1015.83 1015.91 1016.03 1016.23 1016.19 1016.15 1016.07 1016.03 1015.91 1015.67 1015.55 1015.27 1014.99 1014.91 1014.95 1014.87 1014.39 1014.03 1013.91 1013.55 1013.27 1013.19 1013.51 1013.63 1013.67 1013.51 1013.71 1014.03 1014.31
1014.19 1014.15 1013.07 1009.23 1007.59 1009.19 1011.03 1009.63 1008.43 1008.59 1007.99 1008.07 1009.07 1010.39 1012.11 1012.95 1011.83 1014.07 1014.71 1015.11 1016.15 1015.83 1014.95 1014.43 1013.99 1013.91 1014.47 1014.63 1014.83 1014.95 1014.83 1014.55 1014.55 1014.99 1015.39 1015.75 1016.03 1016.11 1016.11 1016.07 1016.07 1015.99 1015.99 1015.95 1015.67 1015.43 1015.39 1015.43 1015.39 1015.27 1015.15 1014.95 1014.39 1014.15 1013.87 1013.63 1013.71 1013.79 1013.75 1013.79 1013.95 1014.11 1014.19
1011.59 1011.27 1010.99 1009.19 1008.99 1009.75 1009.47 1009.75 1009.35 1009.31 1009.27 1009.15 1010.23 1011.75 1012.43 1010.23 1012.59 1017.19 1015.11 1014.47 1015.47 1015.59 1014.79 1014.59 1014.79 1014.63 1014.71 1014.79 1014.83 1014.83 1014.83 1014.79 1014.91 1014.87 1015.19 1015.35 1015.59 1015.83 1015.95 1016.07 1016.11 1016.19 1016.07 1015.87 1015.75 1015.59 1015.59 1015.75 1015.75 1015.55 1015.35 1015.35 1015.35 1014.91 1014.55 1014.03 1013.67 1013.75 1013.91 1013.95 1013.99 1014.19 1014.39
1011.07 1010.19 1010.43 1010.07 1009.75 1010.35 1008.31 1008.71 1009.35 1010.27 1010.19 1010.31 1011.23 1010.91 1010.07 1009.95 1012.91 1017.63 1015.55 1014.59 1015.39 1015.11 1014.47 1014.31 1014.51 1014.63 1014.91 1014.75 1014.75 1014.71 1014.71 1014.55 1014.51 1014.67 1015.07 1015.39 1015.59 1015.67 1015.87 1016.15 1016.23 1016.19 1016.19 1016.07 1015.87 1015.67 1015.59 1015.71 1015.95 1015.95 1015.71 1015.87 1015.75 1015.83 1015.83 1014.91 1014.43 1014.19 1014.07 1014.07 1014.15 1014.19 1014.43
1010.55 1011.07 1010.83 1010.07 1010.43 1010.43 1010.71 1010.63 1010.87 1010.35 1010.35 1010.47 1010.43 1010.47 1009.27 1009.43 1012.59 1013.63 1014.59 1015.71 1015.43 1014.47 1014.67 1014.43 1014.43 1013.95 1014.19 1014.47 1014.27 1014.55 1014.99 1015.23 1015.27 1015.35 1015.67 1015.83 1015.95 1016.23 1016.19 1016.15 1016.19 1016.23 1016.15 1016.03 1015.91 1015.83 1015.79 1015.91 1016.19 1016.19 1016.15 1016.15 1015.99 1016.15 1016.47 1016.15 1015.07 1014.47 1014.07 1014.31 1014.39 1014.47 1014.79
1012.79 1011.43 1011.11 1011.15 1011.19 1011.35 1011.79 1010.87 1010.35 1010.79 1010.83 1010.43 1009.79 1009.71 1009.67 1010.47 1012.91 1012.99 1014.19 1015.31 1016.07 1014.75 1013.83 1014.55 1014.35 1014.39 1014.47 1014.87 1015.11 1015.39 1015.43 1015.23 1015.55 1015.95 1016.15 1016.15 1016.35 1016.51 1016.47 1016.43 1016.31 1016.31 1016.31 1016.15 1015.99 1015.83 1015.87 1015.87 1015.91 1016.23 1016.19 1016.03 1015.87 1016.03 1016.59 1016.35 1015.47 1014.63 1014.27 1014.75 1014.75 1014.63 1014.83
1014.07 1011.67 1011.71 1011.51 1011.15 1011.55 1012.15 1011.91 1011.23 1011.51 1011.71 1012.31 1011.23 1011.83 1010.15 1011.47 1014.99 1014.51 1015.31 1016.59 1017.27 1015.95 1014.39 1014.75 1015.35 1015.59 1015.47 1015.83 1015.75 1015.47 1015.35 1014.99 1015.59 1016.55 1017.11 1017.07 1016.91 1016.75 1016.87 1016.83 1016.71 1016.59 1016.51 1016.59 1016.43 1016.23 1015.95 1015.87 1015.79 1015.59 1015.55 1015.67 1015.75 1016.07 1016.15 1016.11 1015.43 1014.87 1014.87 1014.99 1015.11 1015.11 1015.15
1014.71 1011.87 1011.07 1011.91 1011.63 1012.55 1013.75 1013.07 1011.67 1011.23 1011.03 1010.83 1009.99 1009.95 1009.43 1010.51 1012.71 1014.79 1016.67 1017.31 1015.43 1015.15 1014.83 1015.75 1016.07 1015.87 1015.91 1015.87 1015.87 1016.35 1016.31 1015.99 1016.07 1015.95 1016.19 1017.15 1017.19 1017.11 1016.95 1017.11 1017.11 1016.99 1016.91 1016.83 1016.75 1016.47 1016.19 1015.99 1016.03 1015.91 1015.75 1015.79 1015.83 1015.51 1015.27 1015.07 1014.83 1014.99 1015.19 1015.31 1015.51 1015.67 1015.59
1014.31 1012.35 1011.07 1011.67 1013.79 1016.63 1015.43 1010.15 1009.03 1009.71 1011.03 1010.83 1011.51 1011.31 1011.43 1011.39 1012.35 1013.83 1014.31 1014.95 1014.87 1015.11 1015.31 1015.87 1016.15 1016.11 1016.35 1015.99 1015.95 1015.71 1016.15 1016.47 1016.55 1016.67 1016.55 1016.71 1017.23 1017.23 1017.19 1017.11 1017.23 1017.23 1017.03 1016.99 1016.87 1016.51 1016.31 1016.03 1015.91 1015.87 1015.83 1015.75 1015.59 1015.31 1015.11 1014.87 1014.99 1015.27 1015.43 1015.67 1015.87 1016.11 1016.07
1014.71 1012.75 1012.51 1014.95 1016.95 1016.03 1010.99 1009.23 1008.59 1008.11 1008.99 1009.39 1010.11 1010.39 1011.67 1012.39 1012.39 1013.63 1014.39 1015.07 1015.15 1014.87 1014.67 1014.75 1015.23 1016.03 1016.03 1015.67 1015.79 1016.07 1015.79 1015.99 1016.79 1016.99 1016.79 1017.35 1017.47 1017.43 1017.35 1017.47 1017.47 1017.47 1017.39 1017.23 1017.03 1016.67 1016.39 1016.15 1016.07 1016.03 1016.11 1015.83 1015.63 1015.59 1015.35 1015.43 1015.31 1015.59 1015.83 1016.07 1016.19 1016.31 1016.39
1013.35 1014.43 1014.03 1017.91 1016.39 1012.79 1011.15 1010.51 1010.55 1009.63 1008.99 1009.39 1010.75 1013.15 1013.15 1012.63 1012.95 1014.07 1015.07 1014.83 1014.51 1014.35 1014.59 1014.47 1014.91 1015.51 1015.71 1015.95 1015.91 1016.19 1016.19 1015.71 1015.71 1015.95 1016.95 1017.11 1017.19 1017.51 1017.31 1017.23 1017.55 1017.63 1017.59 1017.47 1017.31 1016.99 1016.39 1016.23 1016.31 1016.19 1016.31 1016.07 1016.03 1015.99 1015.59 1015.63 1015.71 1015.83 1016.15 1016.43 1016.51 1016.47 1016.43
1015.91 1014.47 1014.23 1014.75 1013.79 1013.59 1012.99 1013.07 1012.27 1011.43 1012.31 1012.67 1013.19 1016.03 1015.31 1013.67 1013.15 1013.55 1014.63 1014.91 1014.51 1014.35 1014.47 1015.23 1015.63 1015.75 1016.07 1016.95 1016.99 1016.07 1016.39 1016.03 1015.19 1015.91 1016.71 1016.91 1017.07 1017.11 1017.07 1016.87 1017.23 1017.35 1017.35 1017.31 1017.03 1016.71 1016.55 1016.55 1016.67 1016.55 1016.27 1016.31 1016.35 1016.35 1016.19 1015.95 1015.79 1016.03 1016.31 1016.67 1016.71 1016.67 1016.59
1013.95 1015.07 1015.27 1014.43 1015.63 1017.03 1014.43 1012.51 1011.43 1010.47 1010.43 1010.71 1011.11 1013.03 1015.71 1013.59 1013.27 1013.23 1014.07 1015.07 1015.19 1015.03 1015.19 1015.31 1015.67 1015.91 1017.35 1018.55 1017.95 1015.87 1015.99 1016.67 1016.67 1016.15 1016.47 1016.67 1016.83 1016.91 1016.95 1016.79 1017.03 1017.19 1017.27 1017.11 1016.79 1016.67 1016.71 1016.83 1016.91 1016.67 1016.39 1016.51 1016.59 1016.75 1016.75 1016.39 1016.27 1016.47 1016.67 1016.95 1016.87 1016.79 1016.75
1014.35 1014.99 1015.99 1015.59 1016.23 1015.35 1012.27 1012.31 1011.71 1011.03 1010.15 1011.03 1011.55 1013.63 1016.15 1013.71 1013.23 1013.51 1013.59 1014.43 1014.07 1014.03 1014.27 1014.91 1015.11 1016.99 1019.11 1019.35 1017.67 1016.03 1015.47 1015.91 1016.51 1017.07 1017.19 1017.11 1017.07 1017.03 1016.95 1017.19 1017.51 1017.43 1017.39 1017.27 1017.03 1016.83 1016.83 1017.23 1017.03 1016.59 1016.51 1016.79 1016.99 1017.23 1017.15 1016.95 1016.75 1017.03 1017.15 1017.19 1017.11 1017.03 1016.87
1014.47 1014.51 1015.51 1015.91 1013.59 1016.07 1013.15 1012.19 1011.95 1011.39 1011.11 1011.91 1013.47 1017.75 1016.39 1013.87 1012.55 1012.55 1013.07 1013.59 1013.19 1013.15 1013.87 1014.67 1015.43 1016.31 1017.71 1018.63 1017.63 1016.07 1015.75 1016.43 1016.87 1017.39 1017.63 1017.75 1017.59 1017.35 1017.03 1017.27 1017.35 1017.31 1017.23 1017.27 1017.39 1017.31 1017.27 1017.51 1017.03 1016.75 1016.87 1017.15 1017.43 1017.55 1017.51 1017.31 1017.31 1017.39 1017.35 1017.27 1017.15 1016.99 1016.91
1014.31 1014.71 1014.59 1013.51 1014.51 1013.27 1012.07 1012.27 1011.95 1011.67 1011.63 1013.03 1016.63 1018.35 1014.59 1012.83 1012.51 1012.59 1012.75 1013.43 1013.99 1013.67 1013.99 1014.63 1016.51 1016.71 1016.71 1017.03 1016.87 1016.19 1016.79 1016.79 1016.63 1017.11 1017.19 1017.55 1017.71 1017.75 1017.67 1017.75 1017.51 1017.47 1017.43 1017.59 1017.79 1017.51 1017.55 1017.47 1017.27 1017.23 1017.35 1017.59 1017.79 1017.75 1017.63 1017.59 1017.63 1017.47 1017.19 1017.11 1017.03 1017.07 1016.95
1014.55 1014.03 1014.91 1014.79 1015.19 1013.11 1011.91 1011.75 1011.87 1011.87 1013.67 1017.03 1016.51 1015.15 1013.03 1012.63 1013.07 1012.95 1012.43 1013.23 1014.03 1014.71 1014.99 1015.31 1016.35 1016.31 1015.99 1016.43 1016.47 1016.63 1017.03 1017.39 1017.79 1017.67 1017.75 1017.95 1017.91 1017.79 1017.79 1017.71 1017.75 1017.99 1017.95 1018.03 1017.91 1017.83 1017.75 1017.59 1017.63 1017.71 1017.79 1018.07 1018.03 1017.91 1017.87 1017.83 1017.59 1017.15 1017.11 1017.11 1017.07 1017.07 1017.07
1013.83 1013.91 1014.51 1015.23 1017.51 1014.11 1011.67 1012.47 1012.91 1013.31 1015.39 1015.83 1014.71 1013.95 1013.35 1012.83 1013.03 1012.71 1013.59 1014.31 1014.95 1015.15 1015.67 1016.19 1016.99 1016.43 1016.51 1016.87 1017.27 1017.27 1017.35 1017.79 1017.87 1018.03 1018.27 1018.55 1018.63 1018.59 1018.31 1018.15 1018.15 1018.39 1018.59 1018.63 1018.63 1018.59 1018.23 1018.07 1018.07 1017.99 1018.11 1018.31 1018.27 1018.11 1018.15 1017.83 1017.39 1017.15 1017.11 1017.11 1017.11 1017.15 1017.15
1014.67 1014.55 1015.27 1016.11 1014.07 1013.27 1011.83 1012.83 1014.87 1014.47 1014.35 1014.07 1013.71 1014.07 1014.63 1014.15 1014.07 1014.27 1014.31 1015.19 1015.23 1015.59 1016.11 1016.83 1017.07 1017.07 1017.47 1017.51 1017.47 1017.79 1017.87 1017.95 1017.91 1018.11 1018.47 1018.51 1018.71 1018.59 1018.47 1018.47 1018.59 1018.75 1018.91 1018.95 1019.03 1018.83 1018.67 1018.51 1018.39 1018.27 1018.27 1018.51 1018.43 1018.43 1018.27 1017.67 1017.43 1017.23 1017.19 1017.15 1017.15 1017.27 1017.31
1013.87 1015.79 1015.39 1014.55 1012.87 1012.35 1012.31 1013.23 1014.35 1014.07 1013.83 1013.59 1013.75 1013.79 1014.39 1014.75 1014.63 1014.59 1015.27 1015.91 1016.35 1016.87 1017.19 1017.43 1017.55 1017.59 1017.35 1017.51 1017.63 1018.03 1018.15 1018.15 1018.43 1018.79 1018.83 1018.87 1018.99 1018.99 1019.03 1019.03 1018.91 1019.03 1019.11 1019.11 1019.03 1018.95 1018.83 1018.75 1018.59 1018.55 1018.43 1018.59 1018.59 1018.55 1018.11 1017.75 1017.67 1017.47 1017.27 1017.11 1017.15 1017.35 1017.43
1013.03 1012.91 1012.75 1013.03 1012.91 1012.79 1013.15 1013.31 1013.55 1014.07 1014.31 1014.07 1014.11 1014.31 1014.55 1014.55 1014.59 1014.63 1015.19 1016.47 1016.67 1017.27 1017.47 1017.75 1017.63 1017.59 1017.51 1017.79 1017.95 1017.95 1018.27 1018.51 1018.67 1018.83 1018.95 1019.07 1019.11 1019.07 1019.15 1019.23 1019.39 1019.31 1019.15 1019.03 1019.03 1019.07 1018.87 1018.67 1018.63 1018.55 1018.51 1018.47 1018.63 1018.31 1017.87 1017.67 1017.51 1017.39 1017.23 1017.15 1017.15 1017.15 1017.27
1014.51 1016.19 1013.95 1013.55 1013.59 1013.27 1013.15 1013.87 1013.55 1013.79 1014.23 1014.47 1014.35 1014.59 1014.35 1015.11 1015.19 1015.47 1015.39 1015.43 1016.47 1017.15 1017.71 1017.91 1017.95 1017.83 1017.71 1017.91 1018.15 1018.43 1018.67 1018.75 1018.91 1019.07 1019.27 1019.27 1019.27 1019.43 1019.55 1019.59 1019.55 1019.55 1019.47 1019.31 1019.15 1019.07 1019.03 1018.79 1018.63 1018.43 1018.39 1018.31 1018.19 1017.99 1017.83 1017.59 1017.43 1017.31 1017.31 1017.27 1017.23 1017.11 1017.07
1014.55 1014.47 1013.63 1013.11 1012.87 1013.11 1012.99 1013.35 1013.67 1014.47 1014.63 1014.83 1014.75 1014.75 1014.67 1015.11 1015.63 1015.91 1016.23 1016.43 1016.83 1017.15 1017.79 1018.03 1018.11 1018.03 1017.91 1018.23 1018.51 1018.51 1018.59 1018.87 1019.11 1019.19 1019.23 1019.31 1019.43 1019.47 1019.59 1019.55 1019.55 1019.63 1019.55 1019.55 1019.47 1019.39 1019.27 1018.95 1018.79 1018.67 1018.51 1018.31 1018.07 1017.95 1017.79 1017.67 1017.47 1017.47 1017.51 1017.39 1017.27 1017.15 1016.99
1013.27 1013.23 1013.71 1013.55 1013.75 1013.63 1013.59 1013.43 1013.23 1013.67 1014.51 1014.95 1015.31 1015.43 1015.71 1016.03 1016.39 1016.63 1016.71 1016.59 1016.71 1017.07 1017.15 1017.51 1017.87 1018.11 1018.31 1018.35 1018.59 1018.83 1018.91 1018.99 1019.07 1019.15 1019.23 1019.35 1019.51 1019.63 1019.71 1019.59 1019.55 1019.47 1019.43 1019.59 1019.59 1019.55 1019.31 1019.03 1018.87 1018.83 1018.71 1018.43 1018.03 1017.91 1017.71 1017.55 1017.51 1017.55 1017.55 1017.39 1017.19 1016.99 1016.91
1014.35 1015.31 1014.75 1013.83 1015.87 1015.79 1014.63 1013.99 1013.31 1013.39 1013.71 1014.59 1015.07 1015.27 1015.83 1015.99 1016.55 1016.95 1017.23 1017.35 1016.95 1017.11 1017.43 1017.87 1018.11 1018.35 1018.43 1018.43 1018.79 1019.07 1019.11 1019.19 1019.19 1019.15 1019.27 1019.39 1019.51 1019.59 1019.43 1019.35 1019.43 1019.51 1019.47 1019.55 1019.63 1019.55 1019.47 1019.23 1019.07 1018.91 1018.67 1018.43 1018.19 1017.79 1017.55 1017.39 1017.39 1017.51 1017.35 1017.27 1017.15 1016.99 1016.83
1018.27 1016.83 1015.43 1014.63 1014.75 1014.39 1014.07 1013.95 1013.43 1013.35 1013.71 1014.03 1014.91 1015.07 1015.75 1016.07 1016.27 1016.59 1016.95 1017.15 1017.43 1017.71 1017.51 1017.71 1017.83 1018.11 1018.43 1018.51 1018.51 1018.83 1018.91 1018.95 1018.99 1019.11 1019.39 1019.55 1019.63 1019.51 1019.47 1019.63 1019.55 1019.59 1019.59 1019.63 1019.63 1019.71 1019.67 1019.51 1019.35 1019.15 1018.79 1018.31 1017.91 1017.63 1017.43 1017.27 1017.23 1017.23 1017.19 1017.15 1017.07 1016.91 1016.79
1016.27 1015.87 1015.87 1015.51 1015.75 1016.47 1016.23 1014.27 1014.11 1013.87 1013.87 1014.31 1014.55 1015.19 1015.47 1015.83 1016.15 1016.55 1016.67 1017.03 1017.19 1017.63 1017.39 1017.19 1017.63 1017.79 1017.83 1017.55 1018.03 1018.55 1018.71 1018.91 1019.15 1019.23 1019.39 1019.47 1019.47 1019.63 1019.59 1019.55 1019.55 1019.59 1019.63 1019.67 1019.75 1019.79 1019.71 1019.71 1019.59 1019.31 1018.95 1018.39 1017.95 1017.55 1017.23 1017.19 1017.15 1017.15 1017.19 1017.23 1017.15 1016.87 1016.83
1016.71 1015.83 1015.75 1015.63 1015.27 1014.87 1014.55 1014.47 1014.31 1014.07 1013.99 1014.11 1014.71 1015.19 1015.51 1015.87 1015.91 1015.79 1016.35 1017.07 1017.11 1017.67 1018.15 1017.79 1017.67 1017.67 1017.63 1017.75 1018.03 1018.43 1018.99 1019.19 1019.11 1019.19 1019.35 1019.55 1019.63 1019.59 1019.55 1019.51 1019.55 1019.71 1019.75 1019.79 1019.83 1019.79 1019.75 1019.79 1019.71 1019.43 1018.99 1018.71 1018.47 1017.95 1017.51 1017.27 1017.19 1017.23 1017.19 1017.15 1017.11 1017.23 1017.27
Wind_Speed
12 17 10 8 3 9 12 10 12 11 9 10 8 10 12 11 7 7 11 12 12 14 12 13 10 13 11 11 11 11 12 8 8 7 7 9 9 6 5 6 6 6 4 7 5 3 2 1 3 8 6 5 8 11 13 13 12 12 12 11 11 10 9
6 15 14 10 9 11 6 13 12 12 15 12 9 6 3 11 11 7 11 19 15 13 11 12 14 12 13 13 10 11 9 11 8 7 5 7 6 7 6 5 6 5 3 4 5 4 6 6 6 7 2 9 7 9 14 15 13 13 13 14 13 11 10
8 4 5 7 11 14 13 2 12 9 11 13 8 1 7 8 13 7 11 19 15 10 10 11 12 13 14 13 13 9 9 10 9 10 8 8 9 7 8 7 5 4 3 3 3 2 6 7 11 10 11 14 9 8 12 13 13 14 15 14 12 10 11
10 7 7 10 9 12 16 10 9 12 8 10 11 8 6 7 8 11 7 11 5 3 10 15 13 14 12 14 14 12 9 9 8 7 8 9 10 6 6 5 8 7 7 5 1 5 7 8 9 10 11 9 10 11 10 11 12 9 10 12 10 11 13
11 8 9 11 10 12 11 11 8 8 11 5 7 7 10 9 7 5 13 9 6 9 8 11 13 11 13 12 13 12 10 10 9 7 7 8 11 6 7 6 8 7 5 4 3 6 8 6 4 5 7 9 8 10 12 13 11 11 13 13 12 10 10
7 7 13 14 5 8 13 10 10 12 13 8 8 11 10 9 7 2 9 7 8 7 7 10 11 12 13 13 13 12 13 12 9 8 7 9 8 12 9 9 7 8 8 9 7 6 2 6 6 6 9 9 9 7 6 9 11 11 10 10 8 9 9
10 9 14 1 0 4 9 9 12 8 8 9 7 6 8 11 2 10 11 13 7 5 8 8 9 11 13 12 11 13 13 12 10 9 9 9 9 11 11 10 8 9 11 11 11 11 6 3 3 3 5 3 4 5 5 2 2 3 3 4 6 13 7
5 2 4 7 4 7 6 8 7 12 13 11 11 7 8 2 9 9 7 5 6 7 7 10 9 10 12 11 13 14 11 10 11 11 11 10 10 10 9 10 10 10 10 7 8 10 10 9 8 9 2 2 2 1 2 4 1 2 3 3 4 4 9
5 5 3 7 5 6 7 8 6 6 10 6 8 11 5 6 4 9 4 7 8 7 8 8 9 9 9 12 10 11 13 11 10 10 9 10 10 11 11 10 9 9 10 10 7 5 7 9 9 6 7 5 5 6 5 3 1 1 4 7 6 3 5
10 9 6 7 10 11 5 5 5 3 6 6 6 5 2 3 5 2 8 9 8 9 8 9 10 12 12 10 10 9 10 12 11 10 9 9 10 10 11 11 10 11 9 9 9 9 8 9 9 10 9 6 5 5 7 7 7 6 3 2 4 3 1
4 2 5 9 6 6 7 10 7 5 8 7 8 4 6 3 7 10 11 17 15 14 12 11 11 10 11 12 11 9 8 8 10 10 9 10 9 10 11 11 10 10 10 11 11 11 11 11 11 10 10 12 10 7 7 7 6 5 6 6 6 4 1
6 6 7 6 3 8 14 16 14 5 5 5 6 4 7 6 4 7 8 18 18 16 15 13 12 12 11 11 9 10 10 10 10 9 10 12 11 11 10 11 12 12 11 11 11 11 12 11 11 10 12 13 14 14 11 9 8 7 5 6 6 5 4
7 5 8 7 6 12 4 8 5 3 8 10 8 6 12 3 4 7 11 13 15 15 15 15 13 11 11 10 10 10 8 9 9 9 10 10 11 10 11 11 11 12 12 11 11 12 12 12 11 10 10 10 9 11 12 9 6 6 6 5 5 4 4
5 7 8 6 7 3 5 5 5 5 3 4 7 11 9 5 10 16 15 10 12 14 15 13 13 10 11 10 9 10 9 11 9 9 10 10 11 11 11 11 11 11 12 12 11 11 11 12 11 10 8 6 7 8 8 9 8 5 4 7 6 4 4
5 4 4 4 7 5 4 6 1 0 6 6 5 6 3 5 15 13 17 17 13 10 13 13 9 9 9 10 10 9 9 10 9 9 10 10 11 10 11 11 11 11 12 12 12 11 11 11 10 8 6 7 6 6 5 7 8 9 8 8 7 7 8
7 8 7 9 7 5 7 9 6 7 7 8 3 7 3 2 11 13 17 14 12 10 13 12 11 10 10 11 9 8 6 7 11 13 10 8 10 10 11 11 11 11 12 12 12 12 12 11 10 9 8 7 7 6 5 5 7 9 10 10 11 10 9
7 10 6 9 10 8 10 11 10 7 7 8 5 6 5 4 18 16 13 10 10 13 12 13 11 11 10 9 9 8 8 8 10 8 11 11 9 10 10 11 11 11 11 11 11 11 10 10 10 10 10 9 9 9 8 8 8 10 11 11 11 10 10
5 12 8 4 3 8 7 5 11 10 11 9 9 6 6 4 11 7 11 12 14 14 13 13 13 12 8 9 9 8 5 5 6 8 6 9 9 9 9 10 10 10 10 9 9 10 9 10 11 10 10 9 8 8 7 6 9 9 11 11 10 10 8
7 9 5 5 8 7 3 5 6 7 11 10 9 6 10 6 10 15 15 16 15 14 11 12 14 14 12 10 11 9 7 6 8 4 6 7 7 7 8 9 9 9 10 10 10 10 10 10 10 9 9 10 8 8 8 9 9 9 11 11 10 9 8
6 7 6 4 6 5 2 5 8 8 7 7 11 12 9 6 8 15 15 14 14 13 14 12 11 11 11 9 8 9 2 3 5 5 7 5 8 7 7 8 9 9 9 9 8 8 8 9 10 9 9 9 10 10 10 9 8 9 10 9 10 9 9
7 8 9 7 6 6 5 3 4 4 4 5 5 6 6 5 7 11 14 14 13 12 14 14 12 13 11 8 5 5 7 4 2 5 6 5 6 7 6 8 10 8 8 8 7 6 7 9 10 10 9 9 9 10 10 10 10 10 10 10 9 9 10
7 8 8 10 6 8 8 7 6 5 1 3 2 7 9 9 10 10 13 15 14 14 14 14 15 14 10 9 8 11 16 10 1 4 6 4 5 6 6 7 8 9 8 8 8 8 7 8 9 7 8 8 9 9 10 11 11 10 11 10 9 9 9
6 8 7 7 8 3 3 10 8 3 3 5 6 4 8 8 11 13 11 12 11 12 13 13 14 11 9 7 6 5 5 6 6 4 4 6 5 5 6 8 8 9 7 7 8 8 9 10 8 7 6 8 9 9 9 10 10 10 10 9 10 10 10
7 6 7 8 5 3 6 10 8 7 7 8 3 6 8 12 9 11 12 13 10 7 4 12 7 5 6 10 6 4 6 8 5 2 3 3 4 5 6 9 8 6 6 7 8 9 9 10 10 9 10 9 8 8 7 8 8 9 8 8 8 8 9
8 8 6 7 5 4 10 10 8 7 6 5 6 6 4 15 12 9 9 10 9 6 7 7 5 9 10 8 6 7 9 3 3 3 2 3 4 5 7 8 7 6 7 8 8 9 8 8 9 10 10 9 9 8 7 6 7 7 7 6 6 7 7
8 7 8 5 5 4 7 7 8 8 6 6 4 6 4 8 10 3 5 5 11 12 10 7 8 7 9 9 5 5 6 4 4 1 3 3 4 5 6 5 6 7 7 8 9 10 10 9 10 9 9 8 7 7 7 7 8 7 6 6 6 7 7
7 7 7 6 5 7 7 10 6 3 6 5 7 6 9 8 3 10 9 8 9 7 8 10 7 3 6 7 6 4 4 1 2 2 4 5 5 5 5 6 8 8 7 7 9 10 9 10 9 8 8 8 8 7 8 8 8 6 6 6 6 6 7
7 8 8 1 5 8 7 8 2 7 8 7 7 7 8 7 7 7 6 9 7 4 4 3 3 3 5 4 4 5 3 1 3 5 5 5 5 6 7 7 8 8 7 7 7 8 8 8 8 8 8 8 8 8 9 8 8 7 6 6 5 6 6
4 4 4 4 5 6 7 9 11 10 9 6 6 5 8 6 7 9 6 10 11 6 5 2 1 1 2 3 4 2 2 3 5 5 4 5 6 6 6 8 9 9 8 8 7 7 7 8 8 8 8 8 9 9 8 7 8 8 7 6 4 5 6
3 5 6 7 6 6 9 8 8 10 9 7 4 7 7 7 7 3 7 13 9 7 3 1 2 2 2 2 1 2 4 4 4 3 4 6 6 6 7 7 9 9 9 9 9 8 8 8 8 7 8 8 9 9 8 7 7 7 8 7 6 4 5
2 3 9 8 7 6 8 8 9 8 6 4 3 3 2 10 8 6 5 5 10 7 5 2 1 1 1 1 3 3 2 2 4 5 6 5 5 6 7 8 8 7 8 9 9 11 11 10 9 8 9 8 8 8 8 9 9 8 8 8 7 5 4
6 1 5 6 7 6 5 6 6 8 7 6 4 3 4 8 8 6 7 7 6 6 6 4 5 2 2 3 3 1 2 3 4 4 4 5 6 7 7 7 7 6 7 8 10 10 10 10 10 11 10 10 10 10 10 10 9 8 8 8 8 7 7
6 4 7 4 3 4 5 7 9 7 10 9 9 7 8 8 6 7 6 1 4 5 5 6 2 2 3 2 2 2 3 3 3 3 5 6 6 6 7 7 7 7 6 8 9 10 10 10 11 11 12 12 11 10 9 9 8 8 8 9 9 8 6
6 2 2 8 7 6 7 7 5 8 11 13 12 11 9 9 6 6 5 4 1 3 5 3 3 3 4 4 2 2 2 3 4 4 5 6 6 7 7 6 7 8 8 7 8 9 10 10 11 11 12 11 11 11 10 8 8 8 8 8 8 7 5
3 7 9 8 7 3 2 2 4 3 6 7 10 7 6 5 6 5 4 5 9 2 2 3 6 7 2 3 1 2 3 2 3 5 5 5 6 7 7 8 8 7 7 9 9 9 10 10 11 13 13 12 11 10 9 9 9 8 8 8 7 7 6
4 3 5 6 4 2 6 3 2 3 5 3 6 10 7 6 7 8 6 5 4 6 8 10 4 4 6 5 5 6 3 2 3 4 3 6 6 6 7 7 7 8 9 9 9 10 9 10 11 12 13 13 11 12 9 9 9 8 8 8 9 8 6
3 1 1 1 7 3 3 2 4 4 3 7 6 7 8 8 7 9 14 12 7 5 3 3 8 12 9 2 3 1 2 3 5 4 5 5 5 6 6 6 7 8 7 7 8 8 8 9 11 12 11 10 12 13 12 11 10 10 9 9 8 6 6
Wind_Direction
211 213 222 235 290 212 180 217 219 232 245 253 226 254 221 213 199 205 92 121 110 117 132 131 123 119 122 112 95 110 95 85 109 115 121 139 154 168 145 155 131 110 130 157 137 157 133 163 278 249 234 210 189 164 171 179 182 187 185 187 186 186 185
171 208 215 221 198 261 280 195 213 233 262 268 247 244 265 226 212 164 148 130 149 154 136 144 130 124 106 96 94 77 72 96 92 98 114 90 81 92 87 98 123 142 113 119 127 148 166 173 198 259 315 245 207 177 173 182 184 188 188 188 189 187 186
189 147 324 246 244 233 239 174 8 265 198 226 209 342 261 247 211 135 147 142 140 156 137 148 144 128 105 93 87 83 65 53 61 50 47 118 112 104 71 74 82 59 71 70 56 167 191 196 204 201 189 227 211 203 185 186 190 194 192 191 190 187 188
161 186 198 225 208 250 266 303 260 242 280 262 213 208 261 273 240 130 170 138 115 125 146 138 124 109 108 96 88 87 75 49 56 41 35 36 110 104 73 71 69 62 54 39 303 220 223 214 191 182 213 191 199 205 186 189 197 192 207 201 190 191 192
130 208 193 224 209 215 213 218 241 219 231 318 271 197 221 234 255 227 151 126 109 106 116 108 114 108 102 101 99 91 85 73 48 38 40 48 40 87 161 116 89 83 77 25 249 265 226 192 176 205 205 204 191 207 193 188 194 197 213 215 206 195 196
196 213 187 215 207 218 214 216 226 218 206 212 217 213 206 242 243 124 135 115 102 99 108 119 110 108 105 107 103 102 89 78 78 44 36 30 38 33 59 98 82 58 34 6 17 180 206 190 187 197 214 181 208 210 205 188 204 209 209 214 234 202 204
189 224 155 44 27 290 309 236 215 234 210 213 223 242 217 217 261 109 134 128 130 114 125 118 125 115 109 106 112 102 94 94 83 84 63 49 43 44 46 54 83 76 40 21 13 29 43 61 50 242 205 187 211 225 215 184 55 114 112 69 10 319 248
70 88 150 186 230 307 271 231 252 212 221 210 228 248 353 294 110 115 120 98 150 148 128 112 105 115 108 113 106 106 102 96 93 81 73 66 62 51 53 61 50 72 82 48 18 14 23 33 54 41 31 177 70 105 216 242 159 76 144 147 172 213 323
202 192 101 261 241 275 241 201 196 262 250 277 350 351 342 294 238 122 150 122 143 155 133 126 131 132 126 111 111 114 111 107 96 86 84 80 71 70 70 61 56 52 55 59 62 49 30 36 37 42 33 54 99 85 97 113 70 99 117 127 150 192 210
207 193 194 194 199 204 247 251 234 299 343 352 304 244 270 266 308 245 109 125 126 137 141 150 156 130 111 105 95 86 89 100 103 101 89 81 75 76 75 75 69 58 55 57 52 48 47 45 36 20 19 37 50 44 80 99 100 76 51 126 129 153 78
28 29 274 304 172 193 230 224 261 238 261 257 263 313 319 325 24 75 127 138 151 148 159 156 129 126 127 119 117 116 109 98 93 99 92 89 83 69 66 68 68 64 59 53 50 50 49 45 39 34 25 11 16 30 33 45 57 63 79 79 70 60 357
334 15 346 331 336 297 205 225 198 214 270 281 277 269 233 61 115 96 131 144 148 154 154 145 136 129 114 108 117 118 125 126 116 103 102 95 86 82 70 61 58 59 55 53 48 49 51 48 40 40 32 22 10 3 11 25 26 38 39 51 59 53 29
212 290 359 329 332 348 291 148 47 197 226 251 259 260 273 326 28 129 157 154 145 147 147 139 134 135 128 136 126 112 96 84 88 89 85 77 75 73 71 64 57 51 53 50 50 46 49 49 45 37 34 23 13 9 344 4 26 25 29 44 62 60 65
164 229 241 237 273 41 351 67 171 331 16 246 253 260 258 329 103 137 152 135 134 136 132 137 138 136 126 103 110 106 94 90 92 86 79 78 73 68 62 59 57 53 47 49 50 55 50 47 46 44 47 48 38 34 356 340 4 17 23 42 44 50 60
305 260 223 292 265 290 293 248 288 226 265 288 264 263 264 153 126 144 136 139 131 123 129 116 111 107 114 139 140 118 134 129 98 84 75 65 69 65 61 56 53 54 49 41 42 47 58 53 47 53 48 63 64 65 14 344 7 19 30 51 33 25 33
269 245 205 219 251 267 273 272 238 218 226 239 230 241 215 152 135 141 144 144 133 145 139 125 124 133 157 129 115 127 119 115 123 113 84 63 56 58 61 53 46 45 47 40 35 37 41 55 49 32 32 35 40 45 64 34 27 30 35 43 37 31 23
252 259 196 236 231 234 244 239 244 225 243 246 241 243 211 147 142 155 163 147 135 142 141 142 148 148 144 142 112 81 61 48 42 49 91 82 60 50 55 58 46 42 41 37 30 32 31 41 46 41 33 32 27 22 23 24 34 36 36 39 42 39 27
270 267 217 183 226 235 246 241 225 215 228 207 235 198 98 54 150 140 143 134 144 150 156 153 157 146 106 118 102 87 80 88 85 74 61 63 63 60 51 52 52 42 37 34 26 21 29 33 40 39 30 27 29 28 18 16 43 37 35 38 38 37 33
258 280 140 227 229 234 17 38 345 192 208 214 229 111 104 71 118 125 134 147 158 156 164 164 144 117 123 128 133 134 135 132 111 127 97 87 75 60 62 61 55 46 35 26 19 14 24 27 35 30 32 20 23 22 23 29 30 41 34 31 31 26 27
258 260 226 236 226 63 44 62 45 19 53 61 104 100 92 101 126 141 140 149 154 160 160 145 118 118 124 114 135 127 125 286 136 118 98 65 70 60 42 61 64 46 33 21 13 7 11 25 24 22 28 19 19 20 16 26 31 40 39 32 29 20 17
245 240 233 221 71 203 128 142 139 146 116 132 154 138 115 119 135 144 149 156 155 146 132 131 141 139 142 142 126 148 141 326 75 104 82 53 59 60 49 43 57 46 32 6 6 356 16 32 23 10 17 18 19 17 11 12 21 31 32 29 22 20 16
216 243 241 227 206 254 202 173 145 214 181 239 109 152 141 161 151 144 151 150 154 148 154 155 151 153 143 148 169 178 137 146 11 66 84 74 65 50 41 48 46 35 26 3 2 5 12 37 20 353 10 19 16 17 11 6 15 21 24 21 14 14 11
205 229 253 226 236 219 352 148 145 182 125 62 89 214 187 161 162 168 168 160 169 179 161 141 160 158 144 152 148 145 113 103 121 77 42 24 39 37 34 43 28 21 17 5 1 1 8 24 357 342 17 28 19 14 11 3 7 15 16 14 12 6 3
250 236 220 233 235 133 133 117 121 111 110 103 177 216 211 161 188 167 178 191 203 173 180 132 120 174 188 150 137 166 137 132 101 113 74 22 18 9 27 41 13 14 5 7 13 354 13 17 342 1 12 12 9 8 5 358 3 9 9 10 4 3 354
237 245 241 239 106 116 130 137 128 122 122 151 211 208 99 155 166 156 180 167 174 215 175 89 116 65 77 95 123 152 94 278 95 77 117 73 28 19 25 28 353 16 6 16 359 351 18 358 356 1 2 356 354 349 350 345 4 360 6 2 359 0 354
241 222 240 227 79 105 128 130 140 119 160 189 190 90 161 164 122 144 190 93 82 98 103 99 75 126 120 109 124 98 110 115 144 227 55 34 19 24 22 3 32 23 10 5 357 3 1 355 4 358 354 348 339 344 338 341 349 349 360 355 355 355 351
240 249 247 221 199 143 188 128 135 72 274 76 95 95 74 91 134 165 129 93 98 68 87 75 81 94 90 90 88 75 89 103 84 72 61 46 33 26 3 21 29 22 11 2 1 353 350 354 354 350 345 341 340 334 332 334 335 335 349 341 350 350 349
236 218 230 30 41 143 140 163 196 98 82 118 115 121 119 109 104 64 98 103 79 54 100 119 110 88 111 131 125 118 119 95 72 69 55 41 27 21 11 13 15 7 2 358 352 345 344 346 342 341 339 341 335 335 328 339 326 329 324 331 334 347 346
324 21 69 179 194 121 102 81 97 108 119 113 81 76 103 129 124 133 132 110 106 87 68 67 67 221 147 92 93 106 71 54 51 35 31 27 23 12 11 2 5 359 348 341 341 340 343 340 339 339 338 333 331 322 330 324 324 314 312 308 322 335 340
71 170 87 99 133 139 114 118 104 113 114 112 138 140 171 136 116 145 125 118 120 129 117 250 183 220 60 72 86 70 59 36 38 37 28 23 15 6 5 8 5 349 338 337 336 333 333 336 335 331 327 323 319 323 320 315 312 309 303 305 302 316 322
143 188 162 171 153 135 142 130 138 112 124 110 123 94 89 95 114 89 74 128 125 126 133 194 265 173 164 176 88 52 23 13 17 18 15 7 10 1 5 2 354 349 340 330 334 336 336 337 332 329 328 324 317 320 319 324 320 319 323 318 317 310 319
219 131 151 163 162 161 141 171 151 157 120 107 83 106 97 117 101 118 109 108 139 136 162 164 209 192 71 49 61 342 84 29 21 359 353 359 357 4 355 346 348 338 332 338 334 334 329 331 332 332 326 322 318 318 320 315 315 315 308 306 304 306 312
206 148 127 116 113 177 192 195 193 150 152 148 129 102 99 99 115 109 125 205 146 183 175 149 77 104 96 127 76 17 358 351 336 353 348 349 353 346 339 338 332 320 334 333 336 331 328 331 331 330 327 322 321 314 309 312 313 310 308 304 296 290 306
208 308 261 169 192 206 196 225 225 191 167 147 152 161 173 172 160 148 150 151 50 138 117 117 153 206 176 167 123 331 342 321 307 328 344 342 338 330 325 322 335 335 335 337 332 331 333 335 329 325 320 314 312 312 310 308 310 306 302 294 293 295 296
346 314 349 360 344 332 68 202 223 187 118 165 149 139 150 168 175 160 195 181 159 143 96 180 194 182 165 256 185 240 240 279 320 341 340 321 329 322 336 334 329 329 332 338 345 340 343 337 334 333 327 319 310 308 306 305 304 303 302 302 305 304 301
212 52 3 4 335 48 331 304 191 216 146 144 171 145 153 174 177 180 187 199 215 174 212 176 183 315 263 222 176 211 224 289 286 283 292 316 320 327 318 320 323 327 336 339 341 342 343 342 334 329 324 324 323 315 312 316 316 314 314 314 307 300 312
288 49 57 341 292 328 210 147 231 177 198 184 182 172 178 194 206 210 170 159 180 163 218 235 209 200 213 178 261 298 285 263 271 303 331 315 303 304 310 316 329 342 342 346 346 342 342 343 335 329 323 338 347 342 339 330 323 316 316 315 315 331 336